THORAD AGENA D DEB, 4772

Orbit data source: Space-Track

THORAD AGENA D DEB, 4772 is space debris in SSO originally from a launch on Wed, 08 Apr 1970 UTC launched from the Air Force Western Test Range (AFWTR). Debris objects in space refer to the collection of defunct objects orbiting the Earth. Examples of debris include non-operational satellites, rocket bodies, and fragments generated from explosions, collisions, or faulty payload assembly.

Loading next visibility...
Identifier
4772, 1970-025DS
Orbit
SSO
Country
Flag of USUS
Related business
Manufacturer
Unknown
Mission
Spacecraft
Bus & Motor
Unknown
Mass
Unknown
Launch date (UTC)
1970-04-08 (56 years ago)
Launch vehicle
Unknown
Launch site
Air Force Western Test Range (AFWTR)
Object type
Payload
Rocket body
Debris
Shape & HBR
Unknown shape, 0.1 m
Radar Cross Section
Medium (>0.1 m² and <1 m²)

Expand to show TLE details & history
Last TLE update: 14 hours ago

TLE from 14 hours ago
0 THORAD AGENA D DEB
1 04772U 70025DS  26236.89309806  .00000335  00000-0  76611-3 0  9991
2 04772  99.7695  28.7189 0182065 125.8311  36.1607 13.27059687711285
Epoch: 2026-08-24T21:26Z
TLE epoch observation values (Epoch: 2026-08-24T21:26:03.672Z)
Latitude
16.48998°
Longitude
-83.05816°
Altitude
1,050.088 km
Speed
7.381 km/s
True Right ascension
14h 06m 30s
True Declination
16° 24' 01"
Sunlit
Object was in daylight at epoch
Visualization orbit readout
Latitude
Unknown
Longitude
Unknown
Altitude
Unknown
Speed
Unknown
Apparent Right ascension
Unknown
Apparent Declination
Unknown
Sunlit
N/A
Visualization observer readout
Local Sidereal Time
02:28:42
Azimuth
Unknown
Elevation
Unknown
Doppler factor
Unknown
Orbital elements
Apogee altitude
1,292.364 km
Perigee altitude
1,018.053 km
Semi-major axis
7,533.346 km
Eccentricity
0.01821
Inclination
99.7695°
RAAN
28.7189°
Arg. of periapsis
125.8311°
True anomaly
37.41466°
Mean anomaly
36.1607°
Eccentric anomaly
36.78536°
Mean motion
3.31941 °/min
Orbital period
108.45 mins
BSTAR
0.00076611
Loading maneuver chart data...
Computing Atmospheric mass density...

Documentation

Showing up to 5 results
|